ZHONGXING-2C

Last updated on Thu Nov 21 2024 00:02:43 GMT+0000 (Coordinated Universal Time)

1 41021U 15063A 24325.64998892 -.00000321 00000+0 00000+0 0 9999 2 41021 0.0146 262.6593 0005324 301.6451 193.2185 1.00264717 33247
UTC large
Height (km)
Speed (km/s)
/
Latitude / Longitude
Inclination (degrees)
Orbital Period (minutes)
Azimuth
Elevation
Range (km)
Doppler Factor

Next 0 passes for location: London (51.5072 / 0.1276)

Sorry there are no passes over London.